| time (UTC) | temp F | wind direction | speed MPH | gust MPH | rain 1hr in | rain 24hr in | rain mn in | humidity % | barometer mb |
| 20260906034429 | 68 | 343 | 1.0 | 3.0 | 0.00 | 0.03 | 0.03 | 91 | 1014.6 |
| 20260906033928 | 68 | 343 | 1.0 | 4.0 | 0.00 | 0.03 | 0.03 | 91 | 1014.7 |
| 20260906033428 | 68 | 344 | 1.0 | 4.0 | 0.00 | 0.03 | 0.03 | 91 | 1014.6 |
| 20260906032928 | 68 | 345 | 1.0 | 3.0 | 0.00 | 0.03 | 0.03 | 90 | 1014.7 |
| 20260906032330 | 68 | 347 | 2.0 | 4.0 | 0.00 | 0.03 | 0.03 | 90 | 1014.7 |
| 20260906031827 | 68 | 336 | 2.0 | 4.0 | 0.00 | 0.03 | 0.03 | 90 | 1014.8 |
| 20260906031328 | 68 | 327 | 2.0 | 4.0 | 0.00 | 0.03 | 0.03 | 90 | 1014.6 |
| 20260906030827 | 68 | 334 | 2.0 | 5.0 | 0.00 | 0.03 | 0.03 | 90 | 1014.5 |
| 20260906030327 | 68 | 326 | 2.0 | 5.0 | 0.00 | 0.03 | 0.03 | 90 | 1014.6 |
| 20260906025828 | 68 | 343 | 2.0 | 5.0 | 0.00 | 0.03 | 0.03 | 91 | 1014.7 |
| 20260906025330 | 68 | 353 | 2.0 | 4.0 | 0.00 | 0.03 | 0.03 | 90 | 1014.9 |
| 20260906024547 | 68 | 3 | 2.0 | 5.0 | 0.00 | 0.03 | 0.03 | 90 | 1014.9 |
| 20260906024056 | 69 | 325 | 1.0 | 5.0 | 0.00 | 0.03 | 0.03 | 90 | 1014.8 |
| 20260906023547 | 69 | 341 | 2.0 | 4.0 | 0.00 | 0.03 | 0.03 | 90 | 1014.8 |
| 20260906023029 | 69 | 11 | 2.0 | 4.0 | 0.00 | 0.03 | 0.03 | 90 | 1014.7 |
| 20260906022530 | 69 | 338 | 2.0 | 4.0 | 0.00 | 0.03 | 0.03 | 89 | 1014.7 |
| 20260906022028 | 69 | 333 | 1.0 | 4.0 | 0.00 | 0.03 | 0.03 | 89 | 1014.7 |
| 20260906021529 | 69 | 333 | 2.0 | 4.0 | 0.00 | 0.03 | 0.03 | 89 | 1014.6 |
| 20260906021028 | 69 | 336 | 1.0 | 4.0 | 0.00 | 0.03 | 0.03 | 89 | 1014.5 |
| 20260906020529 | 69 | 343 | 2.0 | 4.0 | 0.00 | 0.03 | 0.03 | 88 | 1014.9 |
| 20260906020029 | 69 | 329 | 1.0 | 4.0 | 0.00 | 0.03 | 0.03 | 88 | 1014.8 |
| 20260906015529 | 69 | 324 | 1.0 | 5.0 | 0.00 | 0.03 | 0.03 | 88 | 1014.6 |
| 20260906015028 | 70 | 17 | 2.0 | 5.0 | 0.00 | 0.03 | 0.03 | 87 | 1014.5 |
| 20260906014529 | 70 | 27 | 1.0 | 5.0 | 0.00 | 0.03 | 0.03 | 87 | 1014.4 |
| 20260906014031 | 70 | 17 | 1.0 | 7.0 | 0.00 | 0.03 | 0.03 | 87 | 1014.3 |
| 20260906013530 | 70 | 15 | 2.0 | 7.0 | 0.00 | 0.03 | 0.03 | 87 | 1014.3 |
| 20260906013032 | 70 | 31 | 1.0 | 4.0 | 0.00 | 0.03 | 0.03 | 88 | 1014.2 |
| 20260906012532 | 69 | 328 | 2.0 | 5.0 | 0.00 | 0.03 | 0.03 | 88 | 1014.2 |
| 20260906012034 | 70 | 340 | 2.0 | 6.0 | 0.00 | 0.03 | 0.03 | 89 | 1014.1 |
| 20260906011531 | 70 | 338 | 2.0 | 6.0 | 0.00 | 0.03 | 0.03 | 89 | 1014.0 |
| 20260906011028 | 70 | 325 | 2.0 | 4.0 | 0.00 | 0.03 | 0.03 | 89 | 1014.1 |
| 20260906010529 | 70 | 325 | 2.0 | 4.0 | 0.00 | 0.03 | 0.03 | 89 | 1014.2 |
| 20260906010029 | 70 | 329 | 2.0 | 4.0 | 0.00 | 0.03 | 0.03 | 89 | 1014.2 |
| 20260906005531 | 70 | 6 | 2.0 | 4.0 | 0.00 | 0.03 | 0.03 | 89 | 1014.1 |
| 20260906005031 | 70 | 328 | 1.0 | 4.0 | 0.00 | 0.03 | 0.03 | 88 | 1013.9 |
| 20260906004505 | 70 | 329 | 1.0 | 7.0 | 0.00 | 0.03 | 0.03 | 88 | 1013.7 |
| 20260906004005 | 70 | 357 | 2.0 | 7.0 | 0.00 | 0.03 | 0.03 | 88 | 1013.5 |
| 20260906003458 | 70 | 14 | 2.0 | 5.0 | 0.00 | 0.03 | 0.03 | 88 | 1013.4 |
| 20260906002958 | 70 | 312 | 1.0 | 4.0 | 0.00 | 0.03 | 0.03 | 88 | 1013.3 |
| 20260906002501 | 70 | 317 | 1.0 | 4.0 | 0.00 | 0.03 | 0.03 | 88 | 1013.3 |
| 20260906001650 | 70 | 304 | 1.0 | 4.0 | 0.00 | 0.03 | 0.03 | 87 | 1013.3 |
| 20260906001151 | 70 | 287 | 1.0 | 4.0 | 0.00 | 0.03 | 0.03 | 87 | 1013.2 |
| 20260906000150 | 71 | 18 | 1.0 | 5.0 | 0.00 | 0.03 | 0.03 | 86 | 1013.2 |
| 20260905235649 | 71 | 331 | 1.0 | 3.0 | 0.00 | 0.03 | 0.03 | 86 | 1013.2 |
| 20260905234823 | 71 | 320 | 1.0 | 4.0 | 0.00 | 0.03 | 0.03 | 86 | 1013.2 |
| 20260905234323 | 71 | 345 | 1.0 | 3.0 | 0.00 | 0.03 | 0.03 | 86 | 1013.1 |
| 20260905233827 | 71 | 8 | 1.0 | 3.0 | 0.00 | 0.03 | 0.03 | 86 | 1013.0 |
| 20260905233323 | 71 | 340 | 1.0 | 3.0 | 0.00 | 0.03 | 0.03 | 86 | 1013.3 |
| 20260905232514 | 71 | 340 | 1.0 | 4.0 | 0.00 | 0.03 | 0.03 | 85 | 1013.0 |
| 20260905232000 | 71 | 331 | 1.0 | 4.0 | 0.00 | 0.03 | 0.03 | 85 | 1013.1 |
| 20260905231501 | 72 | 321 | 1.0 | 4.0 | 0.00 | 0.03 | 0.03 | 85 | 1013.1 |
| 20260905231005 | 72 | 321 | 2.0 | 4.0 | 0.00 | 0.03 | 0.03 | 85 | 1013.2 |
| 20260905230501 | 72 | 319 | 2.0 | 5.0 | 0.00 | 0.03 | 0.03 | 85 | 1013.3 |
| 20260905230001 | 72 | 321 | 2.0 | 5.0 | 0.00 | 0.03 | 0.03 | 84 | 1013.2 |
| 20260905225500 | 72 | 324 | 1.0 | 5.0 | 0.00 | 0.03 | 0.03 | 84 | 1013.2 |
| 20260905225001 | 72 | 336 | 2.0 | 4.0 | 0.00 | 0.03 | 0.03 | 84 | 1013.2 |
| 20260905224458 | 72 | 325 | 1.0 | 4.0 | 0.00 | 0.03 | 0.03 | 83 | 1013.3 |
| 20260905224004 | 72 | 29 | 1.0 | 4.0 | 0.00 | 0.03 | 0.03 | 83 | 1013.2 |
| 20260905223503 | 72 | 2 | 2.0 | 6.0 | 0.00 | 0.03 | 0.03 | 83 | 1013.3 |
| 20260905223000 | 72 | 334 | 2.0 | 6.0 | 0.00 | 0.03 | 0.03 | 83 | 1013.3 |
| 20260905222458 | 72 | 344 | 1.0 | 7.0 | 0.00 | 0.03 | 0.03 | 83 | 1013.3 |
| 20260905222008 | 73 | 27 | 1.0 | 7.0 | 0.00 | 0.03 | 0.03 | 83 | 1013.4 |
| 20260905221458 | 73 | 322 | 2.0 | 6.0 | 0.00 | 0.03 | 0.03 | 83 | 1013.2 |
| 20260905221018 | 73 | 299 | 1.0 | 3.0 | 0.00 | 0.03 | 0.03 | 83 | 1013.3 |
| 20260905220502 | 73 | 350 | 1.0 | 4.0 | 0.00 | 0.03 | 0.03 | 82 | 1013.5 |
| 20260905215959 | 73 | 50 | 1.0 | 4.0 | 0.00 | 0.03 | 0.03 | 82 | 1013.5 |
| 20260905215300 | 73 | 44 | 1.0 | 4.0 | 0.00 | 0.03 | 0.03 | 82 | 1013.5 |
| 20260905214806 | 73 | 51 | 1.0 | 5.0 | 0.00 | 0.03 | 0.03 | 82 | 1013.5 |
| 20260905214258 | 73 | 0 | 0.0 | 5.0 | 0.00 | 0.03 | 0.03 | 82 | 1013.5 |
| 20260905213758 | 73 | 0 | 0.0 | 5.0 | 0.00 | 0.03 | 0.03 | 81 | 1013.4 |
| 20260905213258 | 73 | 3 | 1.0 | 4.0 | 0.00 | 0.03 | 0.03 | 81 | 1013.5 |
| 20260905212758 | 73 | 14 | 1.0 | 4.0 | 0.00 | 0.03 | 0.03 | 81 | 1013.4 |
| 20260905212258 | 73 | 278 | 1.0 | 5.0 | 0.00 | 0.03 | 0.03 | 81 | 1013.4 |
| 20260905211803 | 74 | 330 | 1.0 | 5.0 | 0.00 | 0.03 | 0.03 | 81 | 1013.3 |
| 20260905211258 | 74 | 0 | 0.0 | 4.0 | 0.00 | 0.03 | 0.03 | 81 | 1013.2 |
| 20260905210758 | 74 | 65 | 1.0 | 3.0 | 0.00 | 0.03 | 0.03 | 80 | 1013.2 |
| 20260905210259 | 74 | 0 | 0.0 | 4.0 | 0.00 | 0.03 | 0.03 | 80 | 1013.2 |
| 20260905205758 | 74 | 0 | 0.0 | 4.0 | 0.00 | 0.03 | 0.03 | 80 | 1013.3 |
| 20260905205319 | 74 | 66 | 1.0 | 3.0 | 0.00 | 0.03 | 0.03 | 79 | 1013.2 |
| 20260905204758 | 74 | 0 | 0.0 | 5.0 | 0.00 | 0.03 | 0.03 | 79 | 1013.2 |
| 20260905204300 | 74 | 68 | 1.0 | 5.0 | 0.00 | 0.03 | 0.03 | 79 | 1013.2 |
| 20260905203758 | 74 | 0 | 0.0 | 5.0 | 0.00 | 0.03 | 0.03 | 78 | 1013.3 |
| 20260905203307 | 74 | 0 | 0.0 | 5.0 | 0.00 | 0.03 | 0.03 | 79 | 1013.1 |
| 20260905202803 | 74 | 115 | 1.0 | 4.0 | 0.00 | 0.03 | 0.03 | 80 | 1013.0 |
| 20260905202308 | 74 | 315 | 1.0 | 9.0 | 0.00 | 0.03 | 0.03 | 80 | 1012.9 |
| 20260905201759 | 74 | 326 | 2.0 | 9.0 | 0.00 | 0.03 | 0.03 | 80 | 1012.8 |
| 20260905201301 | 74 | 2 | 2.0 | 6.0 | 0.00 | 0.03 | 0.03 | 80 | 1012.7 |
| 20260905200758 | 73 | 314 | 2.0 | 6.0 | 0.00 | 0.03 | 0.03 | 80 | 1012.4 |
| 20260905200259 | 73 | 353 | 2.0 | 7.0 | 0.00 | 0.03 | 0.03 | 80 | 1012.2 |
| 20260905195758 | 73 | 326 | 3.0 | 7.0 | 0.00 | 0.03 | 0.03 | 79 | 1012.1 |
| 20260905195259 | 73 | 352 | 3.0 | 7.0 | 0.00 | 0.03 | 0.03 | 80 | 1011.9 |
| 20260905194331 | 73 | 314 | 3.0 | 9.0 | 0.00 | 0.03 | 0.03 | 80 | 1011.9 |
| 20260905193831 | 72 | 315 | 3.0 | 9.0 | 0.00 | 0.03 | 0.03 | 81 | 1012.0 |
| 20260905193350 | 72 | 318 | 3.0 | 7.0 | 0.00 | 0.03 | 0.03 | 81 | 1011.9 |
| 20260905192843 | 72 | 320 | 3.0 | 6.0 | 0.00 | 0.03 | 0.03 | 83 | 1011.8 |
| 20260905192331 | 71 | 314 | 3.0 | 6.0 | 0.00 | 0.03 | 0.03 | 83 | 1011.8 |
| 20260905191831 | 71 | 312 | 3.0 | 7.0 | 0.00 | 0.03 | 0.03 | 84 | 1011.9 |
| 20260905191332 | 71 | 316 | 3.0 | 7.0 | 0.00 | 0.03 | 0.03 | 84 | 1011.7 |
| 20260905190831 | 70 | 316 | 3.0 | 8.0 | 0.00 | 0.03 | 0.03 | 84 | 1011.6 |
| 20260905190331 | 70 | 324 | 4.0 | 8.0 | 0.00 | 0.03 | 0.03 | 86 | 1011.7 |
| 20260905185840 | 69 | 312 | 3.0 | 8.0 | 0.00 | 0.03 | 0.03 | 88 | 1011.7 |
| 20260905185331 | 69 | 310 | 4.0 | 8.0 | 0.01 | 0.03 | 0.03 | 90 | 1011.6 |
| 20260905184856 | 68 | 311 | 3.0 | 6.0 | 0.01 | 0.03 | 0.03 | 90 | 1011.9 |
| 20260905184055 | 67 | 316 | 5.0 | 8.0 | 0.02 | 0.03 | 0.03 | 91 | 1011.8 |
| 20260905183547 | 67 | 320 | 4.0 | 8.0 | 0.03 | 0.03 | 0.03 | 92 | 1012.0 |
| 20260905183047 | 67 | 324 | 4.0 | 13.0 | 0.03 | 0.03 | 0.03 | 93 | 1011.8 |
| 20260905182619 | 66 | 315 | 5.0 | 13.0 | 0.03 | 0.03 | 0.03 | 93 | 1011.7 |
| 20260905182047 | 66 | 319 | 5.0 | 8.0 | 0.03 | 0.03 | 0.03 | 93 | 1012.4 |
| 20260905181146 | 66 | 329 | 3.0 | 6.0 | 0.03 | 0.03 | 0.03 | 93 | 1012.4 |
| 20260905180646 | 66 | 324 | 2.0 | 6.0 | 0.03 | 0.03 | 0.03 | 93 | 1012.4 |
| 20260905180146 | 66 | 324 | 3.0 | 6.0 | 0.03 | 0.03 | 0.03 | 93 | 1013.2 |
| 20260905175646 | 66 | 311 | 3.0 | 8.0 | 0.03 | 0.03 | 0.03 | 92 | 1013.6 |
| 20260905175146 | 66 | 312 | 4.0 | 8.0 | 0.02 | 0.02 | 0.02 | 91 | 1013.9 |
| 20260905174500 | 67 | 314 | 4.0 | 8.0 | 0.02 | 0.02 | 0.02 | 89 | 1013.4 |
| 20260905174005 | 67 | 314 | 4.0 | 9.0 | 0.01 | 0.01 | 0.01 | 89 | 1014.0 |
| 20260905173500 | 68 | 310 | 4.0 | 9.0 | 0.00 | 0.00 | 0.00 | 88 | 1014.5 |
| 20260905173003 | 69 | 312 | 4.0 | 9.0 | 0.00 | 0.00 | 0.00 | 87 | 1014.7 |
| 20260905172500 | 69 | 314 | 4.0 | 9.0 | 0.00 | 0.00 | 0.00 | 85 | 1014.8 |
| 20260905171500 | 72 | 310 | 4.0 | 10.0 | 0.00 | 0.00 | 0.00 | 80 | 1015.2 |
| 20260905171002 | 73 | 307 | 3.0 | 10.0 | 0.00 | 0.00 | 0.00 | 77 | 1015.4 |
| 20260905165715 | 76 | 315 | 4.0 | 8.0 | 0.00 | 0.00 | 0.00 | 77 | 1015.8 |
| 20260905165215 | 77 | 327 | 4.0 | 8.0 | 0.00 | 0.00 | 0.00 | 74 | 1016.0 |
| 20260905164657 | 79 | 314 | 4.0 | 8.0 | 0.00 | 0.00 | 0.00 | 72 | 1016.1 |
| 20260905164154 | 80 | 328 | 3.0 | 8.0 | 0.00 | 0.00 | 0.00 | 71 | 1016.2 |
| 20260905163654 | 82 | 303 | 1.0 | 8.0 | 0.00 | 0.00 | 0.00 | 70 | 1016.4 |
| 20260905163155 | 83 | 14 | 1.0 | 7.0 | 0.00 | 0.00 | 0.00 | 72 | 1016.2 |
| 20260905162715 | 84 | 0 | 0.0 | 5.0 | 0.00 | 0.00 | 0.00 | 71 | 1015.9 |
| 20260905162154 | 84 | 0 | 0.0 | 5.0 | 0.00 | 0.00 | 0.00 | 71 | 1016.0 |
| 20260905161654 | 84 | 0 | 0.0 | 5.0 | 0.00 | 0.00 | 0.00 | 71 | 1015.9 |
| 20260905161211 | 84 | 298 | 1.0 | 6.0 | 0.00 | 0.00 | 0.00 | 70 | 1015.6 |
| 20260905160700 | 85 | 0 | 0.0 | 6.0 | 0.00 | 0.00 | 0.00 | 70 | 1015.6 |
| 20260905160201 | 84 | 291 | 1.0 | 5.0 | 0.00 | 0.00 | 0.00 | 69 | 1015.6 |
| 20260905155655 | 85 | 323 | 2.0 | 5.0 | 0.00 | 0.00 | 0.00 | 69 | 1015.7 |
| 20260905155154 | 85 | 289 | 1.0 | 5.0 | 0.00 | 0.00 | 0.00 | 68 | 1015.8 |
| 20260905154716 | 85 | 0 | 0.0 | 5.0 | 0.00 | 0.00 | 0.00 | 71 | 1015.8 |
| 20260905154154 | 85 | 323 | 1.0 | 7.0 | 0.00 | 0.00 | 0.00 | 69 | 1015.8 |
| 20260905153655 | 85 | 342 | 3.0 | 7.0 | 0.00 | 0.00 | 0.00 | 68 | 1015.7 |
| 20260905153156 | 85 | 1 | 2.0 | 5.0 | 0.00 | 0.00 | 0.00 | 69 | 1015.7 |
| 20260905152654 | 84 | 315 | 2.0 | 5.0 | 0.00 | 0.00 | 0.00 | 69 | 1015.6 |
| 20260905152154 | 84 | 338 | 1.0 | 5.0 | 0.00 | 0.00 | 0.00 | 72 | 1015.6 |
| 20260905151654 | 83 | 330 | 2.0 | 7.0 | 0.00 | 0.00 | 0.00 | 72 | 1015.5 |
| 20260905151155 | 83 | 340 | 2.0 | 7.0 | 0.00 | 0.00 | 0.00 | 73 | 1015.5 |
| 20260905150343 | 83 | 311 | 3.0 | 7.0 | 0.00 | 0.00 | 0.00 | 71 | 1015.4 |
| 20260905145900 | 83 | 317 | 3.0 | 7.0 | 0.00 | 0.00 | 0.00 | 70 | 1015.3 |
| 20260905145334 | 84 | 312 | 2.0 | 5.0 | 0.00 | 0.00 | 0.00 | 70 | 1015.3 |
| 20260905144834 | 84 | 314 | 3.0 | 6.0 | 0.00 | 0.00 | 0.00 | 69 | 1015.2 |
| 20260905144343 | 84 | 307 | 2.0 | 7.0 | 0.00 | 0.00 | 0.00 | 70 | 1015.2 |
| 20260905143834 | 84 | 320 | 3.0 | 7.0 | 0.00 | 0.00 | 0.00 | 70 | 1015.3 |
| 20260905143334 | 84 | 328 | 3.0 | 6.0 | 0.00 | 0.00 | 0.00 | 70 | 1015.2 |
| 20260905142847 | 83 | 311 | 4.0 | 7.0 | 0.00 | 0.00 | 0.00 | 70 | 1015.4 |
| 20260905142334 | 83 | 312 | 2.0 | 7.0 | 0.00 | 0.00 | 0.00 | 71 | 1015.4 |
| 20260905141834 | 83 | 318 | 3.0 | 7.0 | 0.00 | 0.00 | 0.00 | 71 | 1015.3 |
| 20260905141334 | 82 | 318 | 3.0 | 6.0 | 0.00 | 0.00 | 0.00 | 72 | 1015.3 |
| 20260905140834 | 82 | 316 | 3.0 | 10.0 | 0.00 | 0.00 | 0.00 | 72 | 1015.3 |
| 20260905140334 | 82 | 316 | 3.0 | 10.0 | 0.00 | 0.00 | 0.00 | 72 | 1015.2 |
| 20260905135834 | 82 | 321 | 3.0 | 10.0 | 0.00 | 0.00 | 0.00 | 72 | 1015.1 |
| 20260905135334 | 81 | 322 | 3.0 | 10.0 | 0.00 | 0.00 | 0.00 | 73 | 1015.1 |
| 20260905134836 | 81 | 314 | 3.0 | 9.0 | 0.00 | 0.00 | 0.00 | 74 | 1015.0 |
| 20260905134334 | 81 | 318 | 3.0 | 6.0 | 0.00 | 0.00 | 0.00 | 73 | 1015.0 |
| 20260905133836 | 81 | 318 | 4.0 | 7.0 | 0.00 | 0.00 | 0.00 | 74 | 1015.0 |
| 20260905133334 | 80 | 312 | 3.0 | 7.0 | 0.00 | 0.00 | 0.00 | 74 | 1015.0 |
| 20260905132834 | 80 | 314 | 3.0 | 7.0 | 0.00 | 0.00 | 0.00 | 74 | 1015.2 |
| 20260905132336 | 80 | 311 | 4.0 | 7.0 | 0.00 | 0.00 | 0.00 | 74 | 1015.2 |
| 20260905131839 | 80 | 317 | 3.0 | 6.0 | 0.00 | 0.00 | 0.00 | 75 | 1015.2 |
| 20260905131334 | 79 | 314 | 3.0 | 7.0 | 0.00 | 0.00 | 0.00 | 76 | 1015.2 |
| 20260905130838 | 79 | 313 | 3.0 | 7.0 | 0.00 | 0.00 | 0.00 | 76 | 1015.2 |
| 20260905130336 | 79 | 313 | 3.0 | 6.0 | 0.00 | 0.00 | 0.00 | 77 | 1015.4 |
| 20260905125835 | 78 | 315 | 3.0 | 6.0 | 0.00 | 0.00 | 0.00 | 77 | 1015.4 |
| 20260905125334 | 78 | 323 | 3.0 | 5.0 | 0.00 | 0.00 | 0.00 | 77 | 1015.4 |
| 20260905124511 | 77 | 310 | 2.0 | 5.0 | 0.00 | 0.00 | 0.00 | 78 | 1015.5 |
| 20260905124011 | 77 | 318 | 3.0 | 5.0 | 0.00 | 0.00 | 0.00 | 79 | 1015.5 |
| 20260905123511 | 76 | 309 | 3.0 | 5.0 | 0.00 | 0.00 | 0.00 | 80 | 1015.6 |
| 20260905122719 | 75 | 313 | 3.0 | 6.0 | 0.00 | 0.00 | 0.00 | 81 | 1015.7 |
| 20260905122220 | 75 | 311 | 3.0 | 6.0 | 0.00 | 0.00 | 0.00 | 81 | 1015.6 |
| 20260905121717 | 74 | 312 | 3.0 | 7.0 | 0.00 | 0.00 | 0.00 | 82 | 1015.8 |
| 20260905121219 | 73 | 310 | 3.0 | 7.0 | 0.00 | 0.00 | 0.00 | 83 | 1015.7 |
| 20260905120718 | 73 | 312 | 3.0 | 6.0 | 0.00 | 0.00 | 0.00 | 83 | 1015.7 |
| 20260905120218 | 73 | 314 | 3.0 | 6.0 | 0.00 | 0.00 | 0.00 | 84 | 1015.5 |
| 20260905115720 | 72 | 310 | 3.0 | 6.0 | 0.00 | 0.00 | 0.00 | 85 | 1015.4 |
| 20260905115231 | 72 | 317 | 3.0 | 6.0 | 0.00 | 0.00 | 0.00 | 85 | 1015.3 |
| 20260905114725 | 72 | 321 | 3.0 | 6.0 | 0.00 | 0.00 | 0.00 | 85 | 1015.4 |
| 20260905114221 | 72 | 317 | 3.0 | 6.0 | 0.00 | 0.00 | 0.00 | 85 | 1015.3 |
| 20260905113719 | 72 | 315 | 3.0 | 6.0 | 0.00 | 0.00 | 0.00 | 85 | 1015.2 |
| 20260905113220 | 71 | 315 | 3.0 | 6.0 | 0.00 | 0.00 | 0.00 | 85 | 1015.1 |
| 20260905112720 | 71 | 314 | 3.0 | 7.0 | 0.00 | 0.00 | 0.00 | 84 | 1015.2 |
| 20260905112218 | 71 | 311 | 3.0 | 7.0 | 0.00 | 0.00 | 0.00 | 84 | 1015.1 |
| 20260905111717 | 71 | 318 | 3.0 | 6.0 | 0.00 | 0.00 | 0.00 | 84 | 1015.2 |
| 20260905111217 | 71 | 316 | 3.0 | 6.0 | 0.00 | 0.00 | 0.00 | 84 | 1015.1 |
| 20260905110720 | 71 | 312 | 3.0 | 6.0 | 0.00 | 0.00 | 0.00 | 84 | 1015.1 |
| 20260905110217 | 71 | 313 | 3.0 | 6.0 | 0.00 | 0.00 | 0.00 | 84 | 1015.1 |
| 20260905105717 | 71 | 310 | 3.0 | 6.0 | 0.00 | 0.00 | 0.00 | 84 | 1015.2 |
| 20260905105228 | 72 | 312 | 3.0 | 6.0 | 0.00 | 0.00 | 0.00 | 84 | 1015.0 |
| 20260905104717 | 72 | 318 | 3.0 | 6.0 | 0.00 | 0.00 | 0.00 | 83 | 1015.0 |
| 20260905104219 | 72 | 315 | 3.0 | 6.0 | 0.00 | 0.00 | 0.00 | 83 | 1015.1 |
| 20260905103717 | 72 | 315 | 3.0 | 6.0 | 0.00 | 0.00 | 0.00 | 83 | 1015.0 |
| 20260905103220 | 72 | 317 | 3.0 | 5.0 | 0.00 | 0.00 | 0.00 | 83 | 1015.1 |
| 20260905102217 | 71 | 325 | 3.0 | 5.0 | 0.00 | 0.00 | 0.00 | 84 | 1015.1 |
| 20260905101007 | 71 | 310 | 2.0 | 5.0 | 0.00 | 0.00 | 0.00 | 84 | 1015.1 |
| 20260905100507 | 71 | 316 | 2.0 | 5.0 | 0.00 | 0.00 | 0.00 | 83 | 1015.0 |
| 20260905095807 | 71 | 313 | 2.0 | 5.0 | 0.00 | 0.00 | 0.00 | 83 | 1014.9 |
| 20260905095307 | 71 | 316 | 2.0 | 5.0 | 0.00 | 0.00 | 0.00 | 83 | 1015.0 |
| 20260905094808 | 71 | 316 | 2.0 | 5.0 | 0.00 | 0.00 | 0.00 | 83 | 1014.9 |
| 20260905094310 | 71 | 318 | 3.0 | 5.0 | 0.00 | 0.00 | 0.00 | 83 | 1014.9 |
| 20260905093627 | 71 | 312 | 2.0 | 6.0 | 0.00 | 0.00 | 0.00 | 83 | 1014.9 |
| 20260905093126 | 71 | 316 | 2.0 | 6.0 | 0.00 | 0.00 | 0.00 | 83 | 1015.0 |
| 20260905092627 | 71 | 342 | 2.0 | 4.0 | 0.00 | 0.00 | 0.00 | 83 | 1014.9 |
| 20260905092126 | 71 | 317 | 2.0 | 5.0 | 0.00 | 0.00 | 0.00 | 83 | 1014.8 |
| 20260905091626 | 71 | 315 | 2.0 | 5.0 | 0.00 | 0.00 | 0.00 | 83 | 1014.8 |
| 20260905091126 | 71 | 316 | 2.0 | 4.0 | 0.00 | 0.00 | 0.00 | 82 | 1014.8 |
| 20260905090323 | 71 | 315 | 2.0 | 5.0 | 0.00 | 0.00 | 0.00 | 82 | 1014.8 |
| 20260905085821 | 71 | 316 | 2.0 | 5.0 | 0.00 | 0.00 | 0.00 | 82 | 1015.0 |
| 20260905085329 | 71 | 318 | 2.0 | 5.0 | 0.00 | 0.00 | 0.00 | 82 | 1014.9 |
| 20260905084822 | 71 | 323 | 2.0 | 5.0 | 0.00 | 0.00 | 0.00 | 82 | 1015.0 |
| 20260905084320 | 71 | 323 | 2.0 | 5.0 | 0.00 | 0.00 | 0.00 | 82 | 1015.0 |
| 20260905083820 | 71 | 324 | 2.0 | 4.0 | 0.00 | 0.00 | 0.00 | 82 | 1015.2 |
| 20260905083320 | 71 | 324 | 2.0 | 4.0 | 0.00 | 0.00 | 0.00 | 82 | 1015.3 |
| 20260905082858 | 71 | 325 | 2.0 | 4.0 | 0.00 | 0.00 | 0.00 | 82 | 1015.3 |
| 20260905082336 | 71 | 325 | 2.0 | 3.0 | 0.00 | 0.00 | 0.00 | 81 | 1015.4 |
| 20260905081831 | 71 | 325 | 1.0 | 4.0 | 0.00 | 0.00 | 0.00 | 82 | 1015.5 |
| 20260905081339 | 71 | 325 | 1.0 | 4.0 | 0.00 | 0.00 | 0.00 | 82 | 1015.7 |
| 20260905080824 | 71 | 325 | 1.0 | 3.0 | 0.00 | 0.00 | 0.00 | 82 | 1015.7 |
| 20260905080320 | 71 | 325 | 1.0 | 3.0 | 0.00 | 0.00 | 0.00 | 81 | 1015.7 |
| 20260905075820 | 71 | 325 | 1.0 | 3.0 | 0.00 | 0.00 | 0.00 | 82 | 1015.7 |
| 20260905075007 | 72 | 325 | 1.0 | 3.0 | 0.00 | 0.00 | 0.00 | 81 | 1015.8 |
| 20260905074507 | 72 | 325 | 1.0 | 3.0 | 0.00 | 0.00 | 0.00 | 81 | 1015.9 |
| 20260905074007 | 72 | 325 | 1.0 | 3.0 | 0.00 | 0.00 | 0.00 | 81 | 1015.9 |
| 20260905073518 | 72 | 325 | 1.0 | 3.0 | 0.00 | 0.00 | 0.00 | 81 | 1016.0 |
| 20260905073007 | 72 | 325 | 1.0 | 3.0 | 0.00 | 0.00 | 0.00 | 81 | 1015.9 |
| 20260905072509 | 72 | 325 | 1.0 | 3.0 | 0.00 | 0.00 | 0.00 | 81 | 1016.0 |
| 20260905072007 | 72 | 325 | 1.0 | 3.0 | 0.00 | 0.00 | 0.00 | 81 | 1016.2 |
| 20260905071507 | 72 | 325 | 1.0 | 4.0 | 0.00 | 0.00 | 0.00 | 81 | 1016.1 |
| 20260905071009 | 72 | 325 | 2.0 | 4.0 | 0.00 | 0.00 | 0.00 | 81 | 1016.2 |
| 20260905070519 | 72 | 325 | 2.0 | 4.0 | 0.00 | 0.00 | 0.00 | 81 | 1016.3 |
| 20260905070008 | 72 | 324 | 2.0 | 4.0 | 0.00 | 0.00 | 0.00 | 81 | 1016.4 |
| 20260905065509 | 72 | 324 | 2.0 | 4.0 | 0.00 | 0.00 | 0.00 | 81 | 1016.5 |
| 20260905065009 | 72 | 325 | 2.0 | 4.0 | 0.00 | 0.00 | 0.00 | 81 | 1016.5 |
| 20260905064507 | 72 | 325 | 2.0 | 4.0 | 0.00 | 0.00 | 0.00 | 81 | 1016.6 |
| 20260905064007 | 72 | 325 | 1.0 | 4.0 | 0.00 | 0.00 | 0.00 | 81 | 1016.6 |
| 20260905063514 | 72 | 325 | 1.0 | 4.0 | 0.00 | 0.00 | 0.00 | 81 | 1016.6 |
| 20260905063008 | 72 | 325 | 2.0 | 4.0 | 0.00 | 0.00 | 0.00 | 81 | 1016.7 |
| 20260905062507 | 72 | 325 | 2.0 | 4.0 | 0.00 | 0.00 | 0.00 | 81 | 1016.7 |
| 20260905062007 | 72 | 325 | 2.0 | 4.0 | 0.00 | 0.00 | 0.00 | 81 | 1016.9 |
| 20260905061507 | 72 | 326 | 1.0 | 4.0 | 0.00 | 0.00 | 0.00 | 81 | 1016.9 |
| 20260905060655 | 72 | 327 | 2.0 | 4.0 | 0.00 | 0.00 | 0.00 | 81 | 1017.0 |
| 20260905060158 | 72 | 327 | 2.0 | 4.0 | 0.00 | 0.00 | 0.00 | 81 | 1017.0 |
| 20260905055655 | 72 | 328 | 2.0 | 4.0 | 0.00 | 0.00 | 0.00 | 81 | 1017.1 |
| 20260905055155 | 72 | 328 | 2.0 | 4.0 | 0.00 | 0.00 | 0.00 | 81 | 1017.2 |
| 20260905054656 | 72 | 328 | 2.0 | 4.0 | 0.00 | 0.00 | 0.00 | 81 | 1017.2 |
| 20260905054156 | 72 | 329 | 2.0 | 4.0 | 0.00 | 0.00 | 0.00 | 81 | 1017.2 |